| time (UTC) | temp C | wind direction | speed KPH | gust KPH | rain 1hr cm | rain 24hr cm | rain mn cm | humidity % | barometer mb |
| 20260504204904 | 26 | 219 | 16.1 | 29.0 | 0.00 | 0.00 | 0.00 | 42 | 1010.1 |
| 20260504204404 | 26 | 229 | 8.0 | 19.3 | 0.00 | 0.00 | 0.00 | 44 | 1010.1 |
| 20260504203904 | 26 | 246 | 14.5 | 27.4 | 0.00 | 0.00 | 0.00 | 43 | 1010.3 |
| 20260504203404 | 26 | 250 | 11.3 | 24.1 | 0.00 | 0.00 | 0.00 | 42 | 1010.2 |
| 20260504202904 | 26 | 208 | 14.5 | 32.2 | 0.00 | 0.00 | 0.00 | 43 | 1010.3 |
| 20260504202404 | 26 | 221 | 8.0 | 16.1 | 0.00 | 0.00 | 0.00 | 44 | 1010.4 |
| 20260504201904 | 26 | 215 | 16.1 | 29.0 | 0.00 | 0.00 | 0.00 | 41 | 1010.5 |
| 20260504201404 | 26 | 224 | 14.5 | 25.7 | 0.00 | 0.00 | 0.00 | 43 | 1010.6 |
| 20260504200905 | 26 | 196 | 8.0 | 19.3 | 0.00 | 0.00 | 0.00 | 44 | 1010.8 |
| 20260504200404 | 26 | 224 | 12.9 | 27.4 | 0.00 | 0.00 | 0.00 | 44 | 1010.6 |
| 20260504195904 | 26 | 235 | 11.3 | 20.9 | 0.00 | 0.00 | 0.00 | 44 | 1010.9 |
| 20260504195404 | 26 | 271 | 9.7 | 29.0 | 0.00 | 0.00 | 0.00 | 43 | 1011.0 |
| 20260504194904 | 26 | 228 | 12.9 | 29.0 | 0.00 | 0.00 | 0.00 | 44 | 1011.2 |
| 20260504193904 | 26 | 255 | 14.5 | 29.0 | 0.00 | 0.00 | 0.00 | 41 | 1011.3 |
| 20260504193404 | 26 | 212 | 16.1 | 24.1 | 0.00 | 0.00 | 0.00 | 44 | 1011.4 |
| 20260504192904 | 26 | 243 | 12.9 | 27.4 | 0.00 | 0.00 | 0.00 | 43 | 1011.6 |
| 20260504191904 | 26 | 220 | 11.3 | 27.4 | 0.00 | 0.00 | 0.00 | 43 | 1011.8 |
| 20260504191404 | 26 | 218 | 8.0 | 25.7 | 0.00 | 0.00 | 0.00 | 44 | 1011.9 |
| 20260504190904 | 26 | 197 | 11.3 | 32.2 | 0.00 | 0.00 | 0.00 | 48 | 1011.8 |
| 20260504190404 | 26 | 207 | 14.5 | 33.8 | 0.00 | 0.00 | 0.00 | 44 | 1011.8 |
| 20260504185904 | 25 | 205 | 9.7 | 24.1 | 0.00 | 0.00 | 0.00 | 44 | 1012.0 |
| 20260504184904 | 26 | 234 | 6.4 | 22.5 | 0.00 | 0.00 | 0.00 | 43 | 1012.1 |
| 20260504184405 | 26 | 241 | 6.4 | 16.1 | 0.00 | 0.00 | 0.00 | 44 | 1012.3 |
| 20260504183904 | 25 | 240 | 14.5 | 25.7 | 0.00 | 0.00 | 0.00 | 44 | 1012.1 |
| 20260504183404 | 26 | 248 | 6.4 | 24.1 | 0.00 | 0.00 | 0.00 | 45 | 1012.2 |
| 20260504182904 | 26 | 286 | 6.4 | 19.3 | 0.00 | 0.00 | 0.00 | 46 | 1012.2 |
| 20260504182404 | 25 | 236 | 11.3 | 32.2 | 0.00 | 0.00 | 0.00 | 45 | 1012.2 |
| 20260504181404 | 25 | 212 | 14.5 | 32.2 | 0.00 | 0.00 | 0.00 | 44 | 1012.4 |
| 20260504180905 | 25 | 244 | 11.3 | 41.8 | 0.00 | 0.00 | 0.00 | 44 | 1012.4 |
| 20260504175904 | 25 | 244 | 11.3 | 22.5 | 0.00 | 0.00 | 0.00 | 43 | 1012.3 |
| 20260504175404 | 25 | 245 | 9.7 | 25.7 | 0.00 | 0.00 | 0.00 | 45 | 1012.4 |
| 20260504174904 | 25 | 232 | 8.0 | 24.1 | 0.00 | 0.00 | 0.00 | 45 | 1012.5 |
| 20260504174404 | 25 | 255 | 14.5 | 29.0 | 0.00 | 0.00 | 0.00 | 43 | 1012.7 |
| 20260504173904 | 25 | 217 | 14.5 | 29.0 | 0.00 | 0.00 | 0.00 | 43 | 1012.6 |
| 20260504173404 | 25 | 221 | 14.5 | 25.7 | 0.00 | 0.00 | 0.00 | 45 | 1012.7 |
| 20260504172905 | 25 | 218 | 14.5 | 32.2 | 0.00 | 0.00 | 0.00 | 47 | 1012.7 |
| 20260504172403 | 25 | 275 | 11.3 | 22.5 | 0.00 | 0.00 | 0.00 | 47 | 1012.9 |
| 20260504171904 | 25 | 275 | 6.4 | 16.1 | 0.00 | 0.00 | 0.00 | 48 | 1012.9 |
| 20260504171404 | 25 | 278 | 6.4 | 24.1 | 0.00 | 0.00 | 0.00 | 48 | 1012.9 |
| 20260504170904 | 25 | 240 | 9.7 | 20.9 | 0.00 | 0.00 | 0.00 | 47 | 1013.1 |
| 20260504170404 | 24 | 265 | 14.5 | 29.0 | 0.00 | 0.00 | 0.00 | 46 | 1013.1 |
| 20260504160404 | 23 | 216 | 8.0 | 19.3 | 0.00 | 0.00 | 0.00 | 53 | 1013.9 |
| 20260504150404 | 22 | 251 | 8.0 | 19.3 | 0.00 | 0.00 | 0.00 | 57 | 1014.2 |
| 20260504140904 | 19 | 231 | 4.8 | 19.3 | 0.00 | 0.00 | 0.00 | 63 | 1014.1 |
| 20260504140404 | 19 | 223 | 6.4 | 14.5 | 0.00 | 0.00 | 0.00 | 62 | 1014.1 |
| 20260504130404 | 17 | 207 | 8.0 | 19.3 | 0.00 | 0.00 | 0.00 | 66 | 1014.5 |
| 20260504110404 | 15 | 223 | 4.8 | 19.3 | 0.00 | 0.00 | 0.00 | 68 | 1013.6 |
| 20260504100404 | 15 | 223 | 8.0 | 20.9 | 0.00 | 0.00 | 0.00 | 66 | 1013.8 |
| 20260504081904 | 15 | 207 | 8.0 | 16.1 | 0.00 | 0.00 | 0.00 | 61 | 1014.1 |
| 20260504081404 | 15 | 210 | 6.4 | 16.1 | 0.00 | 0.00 | 0.00 | 61 | 1014.1 |
| 20260504080904 | 15 | 207 | 9.7 | 19.3 | 0.00 | 0.00 | 0.00 | 61 | 1014.1 |
| 20260504080404 | 15 | 210 | 8.0 | 16.1 | 0.00 | 0.00 | 0.00 | 60 | 1014.1 |
| 20260504070403 | 16 | 216 | 4.8 | 14.5 | 0.00 | 0.00 | 0.00 | 58 | 1014.6 |
| 20260504050404 | 15 | 194 | 4.8 | 9.7 | 0.00 | 0.00 | 0.00 | 56 | 1015.5 |
| 20260504045405 | 15 | 198 | 6.4 | 12.9 | 0.00 | 0.00 | 0.00 | 56 | 1015.6 |
| 20260504044904 | 15 | 210 | 4.8 | 12.9 | 0.00 | 0.00 | 0.00 | 56 | 1015.6 |
| 20260504044404 | 16 | 203 | 3.2 | 11.3 | 0.00 | 0.00 | 0.00 | 55 | 1015.7 |
| 20260504043404 | 16 | 218 | 4.8 | 14.5 | 0.00 | 0.00 | 0.00 | 55 | 1015.7 |
| 20260504042904 | 16 | 208 | 4.8 | 11.3 | 0.00 | 0.00 | 0.00 | 54 | 1015.7 |
| 20260504042404 | 16 | 210 | 8.0 | 12.9 | 0.00 | 0.00 | 0.00 | 54 | 1015.7 |
| 20260504041903 | 16 | 214 | 4.8 | 9.7 | 0.00 | 0.00 | 0.00 | 54 | 1015.8 |
| 20260504041403 | 16 | 218 | 4.8 | 11.3 | 0.00 | 0.00 | 0.00 | 54 | 1015.7 |
| 20260504040904 | 16 | 203 | 8.0 | 12.9 | 0.00 | 0.00 | 0.00 | 54 | 1015.8 |
| 20260504040404 | 16 | 215 | 8.0 | 16.1 | 0.00 | 0.00 | 0.00 | 53 | 1015.8 |
| 20260504035904 | 16 | 217 | 9.7 | 19.3 | 0.00 | 0.00 | 0.00 | 53 | 1015.9 |
| 20260504035404 | 16 | 204 | 8.0 | 14.5 | 0.00 | 0.00 | 0.00 | 53 | 1016.0 |
| 20260504034904 | 16 | 207 | 8.0 | 16.1 | 0.00 | 0.00 | 0.00 | 52 | 1016.0 |
| 20260504034404 | 16 | 198 | 6.4 | 19.3 | 0.00 | 0.00 | 0.00 | 52 | 1016.0 |
| 20260504033904 | 16 | 215 | 6.4 | 12.9 | 0.00 | 0.00 | 0.00 | 52 | 1016.0 |
| 20260504033404 | 16 | 198 | 6.4 | 12.9 | 0.00 | 0.00 | 0.00 | 51 | 1016.0 |
| 20260504031904 | 16 | 202 | 8.0 | 14.5 | 0.00 | 0.00 | 0.00 | 50 | 1016.0 |
| 20260504031404 | 17 | 204 | 8.0 | 14.5 | 0.00 | 0.00 | 0.00 | 49 | 1016.0 |
| 20260504030904 | 17 | 209 | 8.0 | 16.1 | 0.00 | 0.00 | 0.00 | 49 | 1016.0 |
| 20260504025904 | 17 | 201 | 9.7 | 14.5 | 0.00 | 0.00 | 0.00 | 49 | 1016.1 |
| 20260504025404 | 17 | 213 | 8.0 | 14.5 | 0.00 | 0.00 | 0.00 | 48 | 1016.1 |
| 20260504023904 | 17 | 218 | 8.0 | 14.5 | 0.00 | 0.00 | 0.00 | 49 | 1015.9 |
| 20260504023404 | 17 | 209 | 8.0 | 14.5 | 0.00 | 0.00 | 0.00 | 49 | 1016.0 |
| 20260504022904 | 17 | 224 | 8.0 | 14.5 | 0.00 | 0.00 | 0.00 | 49 | 1016.1 |
| 20260504022403 | 17 | 205 | 6.4 | 12.9 | 0.00 | 0.00 | 0.00 | 49 | 1016.1 |
| 20260504021904 | 17 | 198 | 4.8 | 11.3 | 0.00 | 0.00 | 0.00 | 49 | 1016.1 |
| 20260504021404 | 17 | 209 | 4.8 | 12.9 | 0.00 | 0.00 | 0.00 | 48 | 1016.1 |
| 20260504020903 | 17 | 199 | 6.4 | 16.1 | 0.00 | 0.00 | 0.00 | 49 | 1016.0 |
| 20260504020403 | 16 | 212 | 6.4 | 14.5 | 0.00 | 0.00 | 0.00 | 50 | 1016.0 |
| 20260504015904 | 16 | 207 | 6.4 | 12.9 | 0.00 | 0.00 | 0.00 | 50 | 1016.1 |
| 20260504015404 | 17 | 221 | 4.8 | 8.0 | 0.00 | 0.00 | 0.00 | 50 | 1016.1 |
| 20260504014403 | 16 | 206 | 4.8 | 8.0 | 0.00 | 0.00 | 0.00 | 51 | 1015.9 |
| 20260504013904 | 16 | 207 | 3.2 | 8.0 | 0.00 | 0.00 | 0.00 | 50 | 1015.8 |
| 20260504013404 | 16 | 225 | 3.2 | 8.0 | 0.00 | 0.00 | 0.00 | 51 | 1015.8 |
| 20260504012904 | 16 | 199 | 3.2 | 8.0 | 0.00 | 0.00 | 0.00 | 51 | 1015.9 |
| 20260504012404 | 17 | 196 | 3.2 | 4.8 | 0.00 | 0.00 | 0.00 | 50 | 1015.8 |
| 20260504011403 | 17 | 201 | 3.2 | 4.8 | 0.00 | 0.00 | 0.00 | 49 | 1015.9 |
| 20260504010904 | 17 | 202 | 1.6 | 4.8 | 0.00 | 0.00 | 0.00 | 48 | 1015.9 |
| 20260504010404 | 17 | 202 | 3.2 | 4.8 | 0.00 | 0.00 | 0.00 | 48 | 1015.9 |
| 20260504005904 | 17 | 202 | 3.2 | 8.0 | 0.00 | 0.00 | 0.00 | 48 | 1015.9 |
| 20260504005404 | 17 | 223 | 3.2 | 4.8 | 0.00 | 0.00 | 0.00 | 48 | 1015.9 |
| 20260504004404 | 18 | 209 | 3.2 | 4.8 | 0.00 | 0.00 | 0.00 | 46 | 1015.8 |
| 20260504003404 | 18 | 207 | 3.2 | 8.0 | 0.00 | 0.00 | 0.00 | 45 | 1015.7 |
| 20260504002903 | 18 | 209 | 3.2 | 8.0 | 0.00 | 0.00 | 0.00 | 44 | 1015.8 |
| 20260504002404 | 18 | 219 | 4.8 | 9.7 | 0.00 | 0.00 | 0.00 | 44 | 1015.8 |
| 20260504001904 | 19 | 213 | 3.2 | 8.0 | 0.00 | 0.00 | 0.00 | 43 | 1015.9 |
| 20260504001404 | 19 | 221 | 4.8 | 8.0 | 0.00 | 0.00 | 0.00 | 43 | 1015.8 |
| 20260504000404 | 20 | 189 | 3.2 | 11.3 | 0.00 | 0.00 | 0.00 | 41 | 1015.9 |
| 20260503235903 | 20 | 210 | 3.2 | 8.0 | 0.00 | 0.00 | 0.00 | 41 | 1015.9 |
| 20260503235404 | 20 | 231 | 4.8 | 11.3 | 0.00 | 0.00 | 0.00 | 40 | 1015.9 |
| 20260503234904 | 20 | 257 | 4.8 | 8.0 | 0.00 | 0.00 | 0.00 | 41 | 1016.0 |
| 20260503232903 | 20 | 203 | 9.7 | 19.3 | 0.00 | 0.00 | 0.00 | 38 | 1016.2 |
| 20260503232403 | 20 | 225 | 3.2 | 16.1 | 0.00 | 0.00 | 0.00 | 38 | 1016.2 |
| 20260503231904 | 20 | 221 | 6.4 | 14.5 | 0.00 | 0.00 | 0.00 | 38 | 1016.2 |
| 20260503231404 | 20 | 263 | 4.8 | 19.3 | 0.00 | 0.00 | 0.00 | 37 | 1016.3 |
| 20260503230904 | 20 | 311 | 3.2 | 16.1 | 0.00 | 0.00 | 0.00 | 39 | 1016.3 |
| 20260503225904 | 21 | 222 | 8.0 | 16.1 | 0.00 | 0.00 | 0.00 | 37 | 1016.3 |
| 20260503225403 | 21 | 258 | 8.0 | 19.3 | 0.00 | 0.00 | 0.00 | 36 | 1016.3 |
| 20260503224404 | 21 | 250 | 4.8 | 11.3 | 0.00 | 0.00 | 0.00 | 38 | 1016.4 |
| 20260503223904 | 21 | 263 | 6.4 | 14.5 | 0.00 | 0.00 | 0.00 | 37 | 1016.5 |
| 20260503223404 | 21 | 248 | 8.0 | 16.1 | 0.00 | 0.00 | 0.00 | 37 | 1016.6 |
| 20260503222903 | 21 | 203 | 6.4 | 14.5 | 0.00 | 0.00 | 0.00 | 37 | 1016.5 |
| 20260503221403 | 21 | 252 | 4.8 | 16.1 | 0.00 | 0.00 | 0.00 | 36 | 1016.7 |
| 20260503220903 | 21 | 207 | 4.8 | 16.1 | 0.00 | 0.00 | 0.00 | 38 | 1016.8 |
| 20260503220404 | 21 | 186 | 9.7 | 14.5 | 0.00 | 0.00 | 0.00 | 38 | 1016.7 |
| 20260503215904 | 21 | 202 | 8.0 | 12.9 | 0.00 | 0.00 | 0.00 | 37 | 1016.8 |
| 20260503214904 | 21 | 201 | 4.8 | 19.3 | 0.00 | 0.00 | 0.00 | 38 | 1017.0 |
| 20260503214404 | 21 | 294 | 8.0 | 16.1 | 0.00 | 0.00 | 0.00 | 38 | 1017.2 |
| 20260503213903 | 21 | 218 | 4.8 | 12.9 | 0.00 | 0.00 | 0.00 | 38 | 1017.2 |
| 20260503213403 | 21 | 253 | 1.6 | 19.3 | 0.00 | 0.00 | 0.00 | 40 | 1017.3 |
| 20260503212903 | 21 | 214 | 9.7 | 19.3 | 0.00 | 0.00 | 0.00 | 37 | 1017.4 |
| 20260503212404 | 21 | 235 | 9.7 | 19.3 | 0.00 | 0.00 | 0.00 | 38 | 1017.5 |
| 20260503211904 | 21 | 290 | 8.0 | 19.3 | 0.00 | 0.00 | 0.00 | 38 | 1017.6 |
| 20260503211403 | 21 | 223 | 9.7 | 19.3 | 0.00 | 0.00 | 0.00 | 37 | 1017.7 |
| 20260503210903 | 21 | 285 | 6.4 | 19.3 | 0.00 | 0.00 | 0.00 | 38 | 1017.9 |
| 20260503210403 | 21 | 221 | 6.4 | 19.3 | 0.00 | 0.00 | 0.00 | 38 | 1018.0 |
| 20260503205904 | 21 | 250 | 6.4 | 19.3 | 0.00 | 0.00 | 0.00 | 38 | 1018.1 |
| 20260503205403 | 21 | 252 | 9.7 | 19.3 | 0.00 | 0.00 | 0.00 | 39 | 1018.1 |